Regional Weather Roundup
Issued by NWS

Home | Current Version | Previous Version | Graphics & Text | Print | Product List | Glossary On
Versions: 1 2 3 4 5 6 7 8 9 10 11 12 13 14 15 16 17 18 19 20 21 22 23 24 25 26 27 28 29 30 31 32 33 34 35 36 37 38 39 40 41 42 43 44 45 46 47 48 49 50
662
ASUS43 KFSD 261510
RWRSD

WEATHER ROUNDUP FOR SOUTH DAKOTA
NATIONAL WEATHER SERVICE SIOUX FALLS SD
1000 AM CDT SUN MAR 26 2017

NOTE: "FAIR" INDICATES FEW OR NO CLOUDS BELOW 12,000 FEET WITH NO
SIGNIFICANT WEATHER AND/OR OBSTRUCTIONS TO VISIBILITY.


SDZ001>005-009-010-012>017-261600-
NORTHWEST AND NORTH CENTRAL SOUTH DAKOTA

CITY           SKY/WX    TMP DP  RH WIND       PRES   REMARKS
BUFFALO          N/A     46  39  76 E5        29.86R
FAITH            N/A     37  37 100 MISG      29.92R
MOBRIDGE       CLOUDY    40  36  86 SW3       29.90F
$$

SDZ012>016-024>037-041>051-057-063-072>074-261600-
SOUTHWEST AND SOUTH CENTRAL SOUTH DAKOTA

CITY           SKY/WX    TMP DP  RH WIND       PRES   REMARKS
RAPID CTY ARPT CLOUDY    40  37  89 N13       29.89R
PIERRE         CLOUDY    40  37  89 E7        29.92R
CUSTER         CLOUDY    42  34  73 CALM      29.87R
ELLSWORTH AFB  CLOUDY    41  41 100 N12       29.90
PHILIP         LGT RAIN  39  39 100 E8        29.91R
PINE RIDGE     PTSUNNY   46  36  68 N8        29.87R
SPEARFISH      LGT RAIN  39  37  93 NW9       29.93R
WINNER         CLOUDY    41  39  93 E6        29.91R FOG
$$

SDZ004>011-016>023-039-040-261600-
NORTHEAST SOUTH DAKOTA

CITY           SKY/WX    TMP DP  RH WIND       PRES   REMARKS
ABERDEEN       CLOUDY    38  34  85 E5        29.96S
WATERTOWN      CLOUDY    37  35  92 E5        29.93S
BROOKINGS      CLOUDY    37  36  96 NE5       29.93S
SISSETON         N/A     37  37 100 N6        29.96S
$$

SDZ017-020-022-023-036>040-048>070-261600-
SOUTHEAST SOUTH DAKOTA

CITY           SKY/WX    TMP DP  RH WIND       PRES   REMARKS
SIOUX FALLS    CLOUDY    40  38  93 NE8       29.93S
HURON          CLOUDY    39  37  92 E7        29.94S
CHAMBERLAIN    CLOUDY    41  40  93 CALM      29.94R
MITCHELL       CLOUDY    41  39  93 CALM      29.95R
YANKTON        CLOUDY    39  36  87 NE5       29.93S
$$

ABBREVIATIONS USED IN REMARKS
   TC - TEMPERATURE IN CELSIUS
  WCI - WIND CHILL INDEX
   HX - HEAT INDEX
  VSB - VISIBILITY





USA.gov is the U.S. government's official web portal to all federal, state and local government web resources and services.